TimeCET,TemperatureF,Dew PointF,Humidity,Sea Level PressureIn,VisibilityMPH,Wind Direction,Wind SpeedMPH,Gust SpeedMPH,PrecipitationIn,Events,Conditions,WindDirDegrees,DateUTC
12:00 AM,39,37,88,29.76,12,SSW,6.7,,,,Partly Cloudy,210,2014-01-14 23:00:00
12:25 AM,37.4,33.8,87,29.74,6.2,SSW,5.8,-,N/A,,Unknown,210,2014-01-14 23:25:00
12:55 AM,39.2,35.6,87,29.74,6.2,SSW,6.9,-,N/A,,Unknown,200,2014-01-14 23:55:00
1:00 AM,39,37,88,29.76,11,South,6.7,,,,Partly Cloudy,190,2014-01-15 00:00:00
1:25 AM,39.2,35.6,87,29.74,6.2,SSW,8.1,-,N/A,,Scattered Clouds,210,2014-01-15 00:25:00
1:55 AM,39.2,35.6,87,29.77,6.2,SSW,6.9,-,N/A,,Unknown,200,2014-01-15 00:55:00
2:00 AM,39,37,88,29.77,12,SSW,6.7,,,,Overcast,200,2014-01-15 01:00:00
2:25 AM,39.2,37.4,93,29.77,6.2,SSW,8.1,-,N/A,,Partly Cloudy,210,2014-01-15 01:25:00
2:55 AM,39.2,35.6,87,29.77,6.2,South,6.9,-,N/A,,Unknown,180,2014-01-15 01:55:00
3:00 AM,39,36,84,29.77,10,South,8.9,,,,Overcast,180,2014-01-15 02:00:00
3:25 AM,39.2,35.6,87,29.77,6.2,South,9.2,-,N/A,,Unknown,190,2014-01-15 02:25:00
3:55 AM,39.2,35.6,87,29.77,6.2,South,10.4,-,N/A,,Unknown,180,2014-01-15 02:55:00
4:00 AM,39,36,84,29.77,9,South,11.2,,,,Overcast,180,2014-01-15 03:00:00
4:25 AM,39.2,35.6,87,29.74,6.2,South,10.4,-,N/A,,Unknown,180,2014-01-15 03:25:00
4:55 AM,39.2,35.6,87,29.74,6.2,SSE,9.2,-,N/A,,Unknown,160,2014-01-15 03:55:00
5:00 AM,38,36,87,29.75,9,SSE,8.9,,,,Overcast,160,2014-01-15 04:00:00
5:25 AM,39.2,35.6,87,29.71,6.2,SSE,10.4,-,N/A,,Unknown,160,2014-01-15 04:25:00
5:55 AM,39.2,35.6,87,29.71,6.2,South,9.2,-,N/A,,Unknown,170,2014-01-15 04:55:00
6:00 AM,39,36,83,29.73,11,South,8.9,,,,Overcast,170,2014-01-15 05:00:00
6:25 AM,39.2,35.6,87,29.71,6.2,South,10.4,-,N/A,,Unknown,180,2014-01-15 05:25:00
6:55 AM,39.2,35.6,87,29.71,6.2,South,10.4,-,N/A,,Unknown,180,2014-01-15 05:55:00
7:00 AM,39,36,83,29.72,14,South,11.2,,,,Partly Cloudy,180,2014-01-15 06:00:00
7:25 AM,39.2,35.6,87,29.71,6.2,South,10.4,-,N/A,,Unknown,170,2014-01-15 06:25:00
7:55 AM,39.2,35.6,87,29.71,6.2,South,12.7,24.2,N/A,,Mostly Cloudy,170,2014-01-15 06:55:00
8:00 AM,40,36,78,29.70,14,South,13.4,,,,Overcast,170,2014-01-15 07:00:00
8:25 AM,39.2,35.6,87,29.68,6.2,SSE,12.7,-,N/A,,Overcast,160,2014-01-15 07:25:00
8:55 AM,39.2,35.6,87,29.68,6.2,SSE,12.7,-,N/A,,Overcast,160,2014-01-15 07:55:00
9:00 AM,40,36,79,29.69,17,SSE,13.4,,,,Overcast,160,2014-01-15 08:00:00
9:25 AM,39.2,35.6,87,29.68,6.2,SSE,15.0,-,N/A,,Overcast,160,2014-01-15 08:25:00
9:55 AM,39.2,35.6,87,29.68,6.2,South,13.8,-,N/A,,Overcast,170,2014-01-15 08:55:00
10:00 AM,40,36,82,29.68,19,SSE,13.4,,,,Unknown Precipitation,160,2014-01-15 09:00:00
10:25 AM,41.0,37.4,87,29.65,6.2,South,17.3,-,N/A,,Overcast,170,2014-01-15 09:25:00
10:55 AM,39.2,37.4,93,29.65,-9999.0,South,18.4,-,N/A,,Overcast,170,2014-01-15 09:55:00
11:00 AM,40,38,88,29.67,3,South,17.9,,,,Mist,170,2014-01-15 10:00:00
11:25 AM,39.2,37.4,93,29.65,6.2,South,16.1,-,N/A,,Overcast,170,2014-01-15 10:25:00
11:55 AM,41.0,39.2,93,29.65,6.2,South,16.1,-,N/A,,Overcast,170,2014-01-15 10:55:00
12:00 PM,40,38,92,29.66,5,South,15.7,,,Rain,Rain Showers,170,2014-01-15 11:00:00
12:25 PM,41.0,39.2,93,29.62,2.5,South,16.1,-,N/A,Rain,Light Rain Showers,170,2014-01-15 11:25:00
12:55 PM,41.0,39.2,93,29.62,6.2,South,17.3,-,N/A,Rain,Light Rain,170,2014-01-15 11:55:00
1:00 PM,41,39,92,29.63,9,South,15.7,,,Rain,Heavy Drizzle,170,2014-01-15 12:00:00
1:25 PM,41.0,39.2,93,29.62,6.2,South,15.0,-,N/A,Rain,Light Rain,170,2014-01-15 12:25:00
1:55 PM,41.0,39.2,93,29.59,6.2,South,15.0,-,N/A,Rain,Light Rain,180,2014-01-15 12:55:00
2:00 PM,41,40,94,29.61,5,South,15.7,,,Rain,Rain,180,2014-01-15 13:00:00
2:25 PM,41.0,39.2,93,29.59,6.2,South,15.0,-,N/A,Rain,Light Drizzle,180,2014-01-15 13:25:00
2:55 PM,41.0,41.0,100,29.59,6.2,South,18.4,-,N/A,,Overcast,180,2014-01-15 13:55:00
3:00 PM,42,41,93,29.60,14,South,17.9,,,Rain,Rain,180,2014-01-15 14:00:00
3:25 PM,42.8,41.0,93,29.59,6.2,South,15.0,-,N/A,,Overcast,180,2014-01-15 14:25:00
3:55 PM,42.8,41.0,93,29.59,5.0,South,15.0,-,N/A,,Overcast,180,2014-01-15 14:55:00
4:00 PM,42,41,97,29.60,6,South,13.4,,,Fog,Fog,180,2014-01-15 15:00:00
4:25 PM,42.8,41.0,93,29.59,6.2,South,15.0,-,N/A,,Overcast,180,2014-01-15 15:25:00
4:55 PM,42.8,41.0,93,29.59,5.0,South,13.8,-,N/A,,Overcast,180,2014-01-15 15:55:00
5:00 PM,43,42,93,29.60,5,South,13.4,,,,Mist,180,2014-01-15 16:00:00
5:25 PM,42.8,41.0,93,29.59,6.2,South,17.3,-,N/A,,Drizzle,190,2014-01-15 16:25:00
5:55 PM,42.8,42.8,100,29.59,1.8,South,16.1,-,N/A,Rain,Light Rain,180,2014-01-15 16:55:00
6:00 PM,43,42,94,29.60,2,South,15.7,,,Rain,Heavy Drizzle,180,2014-01-15 17:00:00
6:25 PM,42.8,42.8,100,29.59,3.1,South,15.0,-,N/A,Rain,Drizzle,180,2014-01-15 17:25:00
6:55 PM,42.8,42.8,100,29.59,5.0,South,15.0,-,N/A,Rain,Drizzle,190,2014-01-15 17:55:00
7:00 PM,43,42,95,29.59,5,South,11.2,,,Rain,Light Rain,180,2014-01-15 18:00:00
7:25 PM,42.8,42.8,100,29.56,4.3,South,12.7,-,N/A,Rain,Light Rain,180,2014-01-15 18:25:00
7:55 PM,42.8,42.8,100,29.56,2.2,South,11.5,-,N/A,Rain,Light Rain Showers,180,2014-01-15 18:55:00
8:00 PM,43,42,97,29.58,5,South,13.4,,,Rain,Rain,180,2014-01-15 19:00:00
8:25 PM,44.6,42.8,93,29.56,5.0,South,17.3,-,N/A,,Overcast,180,2014-01-15 19:25:00
8:55 PM,44.6,42.8,93,29.56,4.3,South,13.8,-,N/A,,Overcast,180,2014-01-15 19:55:00
9:00 PM,44,43,94,29.57,4,South,13.4,,,,Mist,180,2014-01-15 20:00:00
9:25 PM,44.6,42.8,93,29.56,4.3,South,12.7,-,N/A,,Overcast,180,2014-01-15 20:25:00
9:55 PM,44.6,42.8,93,29.56,4.3,South,13.8,-,N/A,,Overcast,170,2014-01-15 20:55:00
10:00 PM,44,43,95,29.56,4,South,13.4,,,,Mist,180,2014-01-15 21:00:00
10:25 PM,44.6,42.8,93,29.56,-9999.0,South,13.8,-,N/A,,Overcast,180,2014-01-15 21:25:00
10:55 PM,44.6,42.8,93,29.53,4.3,South,13.8,-,N/A,,Overcast,180,2014-01-15 21:55:00
11:00 PM,45,44,92,29.55,4,South,13.4,,,,Mist,180,2014-01-15 22:00:00
11:25 PM,44.6,44.6,100,29.53,3.7,South,13.8,-,N/A,,Overcast,180,2014-01-15 22:25:00
11:55 PM,44.6,44.6,100,29.53,3.7,South,16.1,-,N/A,,Overcast,180,2014-01-15 22:55:00